Погода в Староварваровке

Россия / Приморский край     43°53′09″N   132°55′44″E
темп.,
°C
ветер,
м/с
пор.,
м/с
влажн.,
%
обл.,
%
осадки,
мм/ч
давл.,
гПа
погр.,
м
24 апреля, сб
сб2401:00+11ссв1161100 0.0 102310
04:00+10юз1171100 0.0 102316
07:00+11ссз1174100 0.0 102224
10:00+14ссз3468100 0.0 1021956
13:00+12ссз5559100 0.1 1021753
16:00+3ссз4889100 1.1 1023626
19:00+2ссв248397 1.8 1023403
22:000з11913 1.8 102314
25 апреля, вс
вс2501:000юз11872 0.0 102315
04:00−1ююз22832 0.0 102218
07:000юз237694 0.0 102158
10:00+6ссз713472 0.0 10212053
13:00+7ссз712250 0.0 10212171
16:00+8ссз611233 0.0 10202334
19:00+7ссз410260 0.0 10211975
22:00+2зюз11360 0.0 102310
26 апреля, пн
пн2601:000ю22410 0.0 102415
04:00−1ю22430 0.0 102417
07:000ю22403 0.0 102451
10:00+11юз3524100 0.0 10211080
13:00+14юз4522100 0.0 10191782
16:00+13юз5623100 0.0 10171480
19:00+9ююз5114399 0.0 1018824
22:00+6ю41254100 0.0 1019542
27 апреля, вт
вт2701:00+4ю31060100 0.0 1018462
04:00+3ю3868100 0.0 1017309
07:00+4ю31176100 0.0 1016416
10:00+13ю485597 0.0 1013856
13:00+17ююз694716 0.0 10121480
16:00+16ю7104397 0.0 10101405
19:00+12ю41063100 0.0 10101139
22:00+10ю41077100 0.0 1010614
28 апреля, ср
ср2801:00+9ююв2592100 1.1 1010349
04:00+8ю2493100 1.1 1009227
07:00+8ю259370 0.0 1009191
10:00+13з466070 0.4 1009858
13:00+17з58275 0.2 10082848
16:00+18з7723100 0.2 10073296
19:00+14зюз372726 0.2 10091103
22:00+9ююз22464 0.2 101231